Theta_e
313 315 317 319 320 318 319 318 318 319 319 319 321 320 321 322 327 336 332 341 340 345 347 340 339 340 338 337 336 336 337 337 340 342 344 341 340 339 338 339 341 343 340 339 339 338 338 338 338
315 317 318 319 318 320 321 318 318 318 318 320 321 322 324 328 325 327 336 337 341 346 348 346 339 340 338 338 337 336 336 337 341 343 343 341 340 339 338 339 340 341 340 339 340 340 339 338 338
320 319 321 319 319 321 320 317 318 318 318 320 321 321 323 324 324 326 329 336 341 346 347 347 339 340 339 338 338 337 336 336 339 343 342 340 340 340 339 339 339 340 340 339 339 339 338 338 338
319 319 319 321 321 320 317 317 318 319 319 321 321 322 322 322 322 325 332 340 341 345 347 348 339 340 340 339 339 338 337 336 337 340 341 340 342 340 340 339 339 339 339 338 338 339 338 339 338
318 319 322 322 322 320 318 318 319 320 321 321 321 323 323 322 321 326 332 341 342 345 347 347 340 340 339 339 339 338 337 337 337 338 340 342 342 340 340 339 339 339 338 337 337 337 338 338 338
320 321 323 324 324 321 320 320 320 321 322 321 321 322 323 321 319 326 331 340 344 345 347 348 341 339 339 338 338 338 338 337 336 338 341 342 341 340 340 339 338 338 337 336 336 337 338 337 338
321 323 324 324 324 323 322 320 321 320 320 319 319 320 322 321 317 322 332 338 342 345 346 346 345 342 338 338 338 338 338 337 336 336 338 339 339 339 338 338 337 337 336 336 336 337 337 336 337
320 320 322 322 322 322 321 319 318 316 317 316 317 319 319 316 314 316 327 337 340 342 343 344 344 344 344 343 338 338 338 338 337 337 338 338 338 338 337 336 336 336 336 335 335 336 337 336 336
319 320 320 321 321 321 320 315 315 313 315 314 315 315 313 313 313 316 322 331 338 340 341 341 341 342 342 343 342 339 339 339 338 339 338 338 339 338 337 338 336 336 335 334 334 334 335 335 336
317 318 317 319 319 317 314 312 311 310 311 311 311 311 310 311 312 315 318 322 329 336 339 339 340 340 340 339 340 343 343 341 342 342 342 340 340 339 337 337 335 335 335 333 333 333 334 334 337
315 314 316 314 312 311 310 309 309 308 309 309 309 310 310 309 310 311 313 315 316 330 336 337 339 339 339 338 339 341 341 342 342 342 342 341 341 340 337 336 334 336 334 335 334 333 336 337 337
312 312 311 310 308 307 307 308 308 308 309 309 308 309 309 309 310 310 310 311 313 314 333 336 336 338 338 337 337 339 339 339 340 341 341 341 341 339 337 336 335 335 335 335 336 335 336 336 336
310 309 308 308 307 307 307 308 308 309 309 308 308 308 308 309 309 308 308 309 310 312 315 329 336 336 337 337 336 338 339 340 340 339 340 341 339 339 338 335 335 335 335 336 336 336 337 336 337
308 307 308 308 307 307 306 307 307 309 308 307 307 308 308 309 309 309 308 308 309 309 311 314 330 337 336 336 337 337 338 339 339 339 339 341 339 338 337 335 334 334 335 334 335 336 336 336 336
309 308 308 307 307 307 306 307 308 308 307 306 307 308 309 310 309 310 309 309 308 308 309 310 313 331 338 336 336 336 336 337 338 339 338 338 340 338 336 335 333 334 335 335 336 336 337 336 335
307 307 308 308 307 306 305 307 307 307 306 307 308 309 310 310 310 310 310 310 309 309 308 308 310 314 334 337 336 336 335 337 337 338 338 338 339 338 336 335 333 334 335 336 336 336 335 336 335
307 307 307 307 306 305 305 306 306 307 306 307 308 309 310 310 310 312 313 313 313 310 309 309 309 311 317 334 336 337 336 336 336 337 336 337 338 338 336 334 334 334 334 334 334 334 334 335 334
308 307 306 306 306 305 305 306 306 306 307 308 309 309 309 310 313 313 313 313 314 314 312 309 309 309 312 321 336 336 337 336 336 336 336 336 336 337 336 334 334 334 333 333 332 332 333 333 332
305 304 304 305 305 304 305 305 306 307 307 308 309 310 310 313 314 313 314 314 315 316 315 312 309 309 310 315 329 336 338 338 336 335 335 336 335 336 336 334 335 333 333 332 331 331 332 333 332
303 303 305 304 304 303 305 306 307 307 308 309 310 312 314 314 315 315 315 314 316 316 317 316 310 309 309 311 324 334 337 339 337 336 335 336 334 335 336 335 335 333 332 332 331 333 333 333 332
304 303 303 302 304 305 306 308 307 308 308 310 313 313 313 314 316 316 314 313 314 315 319 318 313 309 309 309 319 331 336 337 337 337 336 336 335 334 335 335 335 333 333 332 331 333 333 332 330
303 302 302 303 304 306 306 306 307 308 309 312 312 312 313 314 313 310 309 310 308 311 314 319 315 309 308 309 315 329 334 336 336 336 337 336 335 334 333 335 335 334 333 333 332 333 333 332 330
302 302 304 305 305 306 308 307 308 308 311 311 310 311 313 310 308 306 305 304 302 304 308 315 312 310 308 308 310 328 333 334 335 335 337 337 336 334 333 333 335 334 334 334 333 332 334 333 332
302 305 306 306 308 308 307 306 306 310 310 310 310 313 311 309 305 304 301 300 299 299 303 309 313 308 308 308 310 328 334 334 334 336 338 337 337 334 332 333 333 334 333 334 333 332 334 334 333
304 306 306 306 307 306 306 306 307 310 309 309 312 311 306 305 303 300 300 297 298 298 300 305 315 308 308 308 310 329 334 335 337 338 338 338 337 334 334 332 332 334 333 333 333 332 333 334 334
305 306 307 307 305 306 306 307 308 309 308 309 309 305 304 303 302 300 298 296 296 296 298 301 310 309 308 308 312 326 333 334 336 337 337 339 337 335 334 333 333 333 333 333 332 333 333 334 335
305 306 305 309 307 308 308 307 308 309 308 307 305 304 303 301 300 299 296 294 295 295 296 299 302 316 310 309 313 324 333 334 335 336 338 338 338 337 335 334 332 333 334 333 333 334 334 335 335
305 304 309 309 310 307 306 306 310 310 309 307 305 304 303 301 299 298 296 293 294 294 294 296 298 303 314 325 324 330 334 336 336 337 338 339 339 338 336 335 333 333 333 334 334 334 333 333 333
305 305 305 307 308 309 308 308 308 308 308 306 304 303 303 301 299 297 295 292 292 293 293 294 296 299 305 307 316 329 335 336 337 339 339 338 339 337 336 335 334 333 333 334 334 334 336 333 332
303 304 304 309 309 308 309 308 308 307 306 305 304 302 301 301 298 296 294 292 291 292 292 293 294 296 301 302 305 310 318 327 332 337 338 338 338 337 337 336 335 334 332 333 333 333 333 332 331
Wind_Speed
3 3 4 6 5 5 5 5 3 6 1 8 8 7 9 7 7 8 17 16 7 16 19 25 25 25 24 22 20 18 17 17 18 22 24 24 21 19 20 19 20 18 17 16 15 15 15 15 15
3 3 5 3 7 8 2 7 7 6 5 8 4 4 1 6 10 10 12 15 4 13 17 21 26 25 23 21 20 19 17 16 16 21 23 23 22 20 19 18 18 17 16 16 14 14 12 14 15
2 3 4 4 5 8 3 4 7 4 0 10 7 2 4 7 14 14 21 16 5 12 14 18 26 24 23 21 19 18 17 17 18 20 22 22 21 20 17 16 17 16 15 15 14 12 12 15 16
3 6 4 7 11 0 4 5 6 6 2 10 8 1 7 6 12 21 21 6 8 12 13 14 24 24 23 22 20 19 18 18 19 20 22 22 21 19 18 17 16 16 14 13 13 13 14 15 17
5 4 7 9 9 2 1 4 4 5 4 8 8 8 10 5 19 23 20 7 6 11 12 11 22 21 22 22 21 20 19 19 19 21 22 22 21 21 18 17 16 15 14 14 12 14 15 17 18
6 4 7 9 6 2 1 2 4 5 6 7 9 12 5 6 23 25 20 8 5 11 10 10 20 20 19 19 19 20 20 21 21 21 22 22 22 19 18 18 17 16 14 13 13 16 16 17 19
10 6 10 8 9 9 4 4 5 8 11 8 10 11 6 12 22 22 17 10 6 10 11 11 14 16 18 18 19 19 20 21 21 21 22 21 20 20 19 18 17 16 14 14 15 17 17 16 17
4 5 7 6 7 7 5 8 6 10 11 6 5 6 12 19 23 21 14 11 6 9 11 12 13 12 12 12 18 19 20 20 22 21 21 20 19 19 19 18 17 17 16 15 16 18 18 18 18
2 6 8 5 6 2 6 11 4 8 10 9 5 8 16 20 20 18 15 9 6 9 11 12 13 12 12 12 13 18 19 20 20 21 21 19 15 16 17 16 18 17 16 14 14 16 17 17 19
6 6 3 4 3 7 12 12 14 10 12 9 11 9 13 17 18 16 14 14 12 9 13 13 14 14 13 11 13 13 15 16 17 18 18 18 16 16 15 15 17 16 15 14 13 16 18 18 16
3 6 1 2 4 6 13 14 11 11 11 7 12 13 13 16 18 17 16 15 15 12 13 16 16 16 16 14 12 13 19 18 19 19 20 19 16 16 16 14 15 13 15 13 14 16 15 16 17
7 1 2 3 5 6 9 12 11 11 12 8 10 13 16 17 15 19 20 19 16 14 12 17 19 19 19 18 17 15 16 22 22 22 21 20 18 17 17 15 16 16 16 15 16 16 15 20 18
7 1 2 3 1 3 6 8 12 21 14 9 12 18 20 16 16 18 20 21 19 17 13 15 20 23 22 22 20 20 21 20 20 23 22 20 20 19 18 16 17 17 17 17 17 18 16 16 15
2 5 7 5 2 3 7 13 11 4 2 10 18 23 20 17 17 17 19 22 22 21 20 16 18 24 26 26 26 24 23 23 22 23 24 23 22 20 19 18 18 17 17 19 19 18 18 16 13
3 8 6 7 4 6 8 11 10 2 6 18 22 18 17 15 17 17 18 21 25 26 24 22 19 22 28 29 29 29 27 28 26 25 30 27 24 22 21 20 19 18 17 18 19 18 17 16 15
5 5 6 7 4 3 6 11 2 6 15 21 19 16 15 16 19 21 24 25 24 28 28 26 23 21 25 30 30 30 30 31 31 27 27 33 27 23 23 22 21 20 19 19 19 19 16 15 16
4 7 6 7 3 7 5 13 5 16 16 17 16 16 16 17 21 29 33 32 31 29 32 31 27 26 25 28 33 32 31 33 33 30 28 30 32 27 25 23 23 22 21 21 19 19 19 16 16
1 5 5 10 8 12 18 17 15 18 14 13 14 15 15 14 18 26 30 36 44 39 35 36 33 32 30 29 31 33 34 33 31 31 30 29 36 31 28 24 24 25 24 23 21 18 20 18 16
2 5 10 12 9 13 15 20 17 15 9 9 12 15 15 19 21 30 35 35 46 48 41 38 37 34 33 33 33 34 35 34 34 33 30 30 32 33 32 28 26 27 27 25 23 21 22 20 19
3 8 8 8 6 12 18 23 13 4 6 7 15 16 20 26 27 29 34 43 43 41 44 43 38 36 34 35 34 36 36 36 35 32 32 33 33 37 35 33 30 29 26 26 25 23 22 19 21
4 5 6 10 18 15 14 5 1 6 5 12 17 20 24 28 29 28 33 41 39 46 38 41 40 39 35 35 36 34 30 28 31 34 35 35 35 38 38 36 32 29 28 28 29 28 26 20 22
6 2 9 14 11 7 7 6 2 10 12 16 19 23 26 28 28 27 30 37 36 39 45 44 42 38 35 35 35 36 32 31 32 34 34 36 36 37 42 36 34 32 31 28 31 30 29 26 20
3 10 13 13 10 9 5 7 3 10 17 22 25 26 25 25 24 28 27 38 40 40 44 45 37 36 36 35 38 35 36 33 43 26 33 33 34 35 38 40 36 34 32 30 31 31 31 29 23
6 9 6 4 4 5 2 4 6 11 19 25 29 26 26 29 28 24 35 38 39 44 44 46 34 33 36 35 37 38 37 34 29 43 33 31 31 37 38 38 39 38 35 34 33 32 31 29 27
5 7 3 4 4 3 3 8 8 11 18 24 25 24 23 25 26 25 26 29 38 42 43 39 29 30 34 32 37 39 38 38 38 33 30 28 29 33 38 41 40 40 39 36 33 33 30 31 28
2 4 2 4 4 9 12 7 3 10 19 23 22 20 22 25 26 26 24 31 36 41 42 39 35 23 26 30 34 36 38 33 31 26 21 29 31 35 37 40 39 38 36 35 35 32 31 31 31
5 2 3 2 6 5 4 8 7 14 20 20 19 19 23 24 26 28 28 35 37 41 39 37 38 31 15 25 27 31 33 30 28 27 30 28 32 31 32 38 38 39 37 36 35 31 31 30 30
2 4 4 4 4 5 6 12 5 19 22 21 22 23 25 23 25 24 24 37 39 46 45 46 44 34 26 13 16 23 25 26 25 27 28 30 28 26 27 32 35 34 34 34 36 32 28 29 30
7 5 3 2 4 4 7 3 7 14 20 21 20 23 23 21 23 21 24 38 37 45 45 42 40 37 34 33 22 9 10 18 22 21 23 22 20 22 25 31 34 34 35 36 34 31 27 27 27
4 7 5 4 5 6 7 11 7 13 18 19 19 22 22 20 22 22 27 33 35 43 45 42 42 39 35 31 30 30 23 15 10 7 15 18 20 23 24 28 30 29 30 29 29 28 26 27 27
Wind_Direction
249 226 260 246 241 241 257 117 99 81 24 2 329 304 327 312 351 322 326 341 254 189 178 176 180 178 178 175 175 177 184 187 191 186 185 182 181 178 176 174 173 174 172 167 167 171 175 179 172
222 225 224 271 254 241 214 122 155 45 3 320 306 319 17 73 18 317 335 342 282 191 185 178 183 182 180 177 178 180 183 184 187 179 180 181 182 180 177 177 177 176 173 171 163 170 173 170 169
231 250 258 252 263 262 323 111 93 23 38 0 340 29 12 4 357 347 334 320 197 193 196 191 184 184 182 180 182 184 184 184 186 181 180 184 182 180 179 180 178 179 179 174 173 169 168 172 170
238 199 210 245 248 216 28 100 359 355 109 355 350 270 324 58 354 345 336 319 179 190 192 214 192 185 186 187 189 189 187 186 188 188 188 186 183 177 182 182 180 181 181 174 182 178 177 173 164
226 248 241 244 257 297 275 337 336 336 18 348 348 334 313 90 1 355 352 323 205 190 195 209 193 196 193 193 192 192 191 190 189 190 192 189 183 183 186 185 181 180 178 178 179 185 178 173 168
218 272 238 249 232 269 325 356 324 332 341 339 325 317 310 348 359 353 349 327 243 195 197 194 197 199 201 201 201 196 195 193 192 193 194 194 192 189 188 186 181 183 186 184 187 192 181 178 176
269 251 271 292 279 283 53 8 4 335 326 353 319 308 324 351 346 342 344 330 246 204 194 188 192 201 203 206 207 204 203 196 192 196 198 199 194 190 186 184 182 183 185 189 198 196 184 183 181
272 266 266 244 286 298 63 332 351 340 322 325 319 334 325 332 333 335 336 334 269 220 197 192 191 193 200 210 215 210 207 206 196 194 200 197 193 191 188 185 183 184 187 195 203 197 188 184 184
230 248 259 272 267 343 336 329 324 314 280 311 337 321 323 322 327 333 337 349 301 245 219 200 195 194 195 202 220 218 213 211 206 198 197 197 191 194 192 183 187 181 184 195 201 202 192 185 184
241 254 324 24 4 314 317 313 317 306 303 297 316 336 332 331 335 336 339 336 332 269 233 219 203 199 203 209 208 211 213 213 210 203 199 192 199 199 190 186 182 178 186 188 196 202 187 173 179
184 277 96 97 10 326 306 301 327 300 289 341 311 324 328 327 327 326 326 328 330 313 247 232 217 205 204 208 209 206 209 202 208 206 198 198 199 199 194 186 180 180 180 180 180 194 175 169 174
250 285 292 7 342 310 301 319 308 287 294 328 305 311 312 316 313 314 315 312 319 319 280 247 231 216 210 206 208 211 209 208 204 203 203 198 198 199 196 193 186 182 182 185 178 179 184 184 180
248 221 252 308 273 290 302 284 292 284 290 311 300 308 314 316 312 305 303 301 300 298 297 272 242 232 217 211 207 207 210 212 207 207 204 201 200 200 197 194 185 186 186 187 185 180 188 192 192
16 270 275 250 278 270 293 298 274 282 321 301 311 312 309 312 314 309 303 301 298 293 286 279 255 238 233 219 209 206 207 207 210 209 206 203 205 199 196 194 189 188 192 190 190 186 186 189 192
291 280 248 219 283 302 315 272 226 182 316 309 307 307 309 318 324 324 316 308 304 296 287 279 271 249 235 231 225 207 206 207 211 212 216 203 208 203 194 193 192 191 188 185 187 185 185 189 198
252 246 267 154 309 88 331 306 81 305 307 300 305 307 319 331 330 330 328 317 307 297 290 281 271 258 240 234 229 226 213 203 208 209 208 208 204 207 196 193 192 191 185 187 188 185 181 184 187
197 288 293 307 279 318 278 301 317 304 299 304 312 318 325 326 329 331 330 326 315 295 285 280 270 256 246 236 230 225 224 213 206 207 206 206 200 204 202 195 192 187 188 191 192 189 189 185 188
29 283 286 296 323 317 295 287 322 302 306 308 318 312 309 312 319 319 318 320 322 304 285 272 264 258 247 236 228 223 221 220 213 208 208 203 202 200 201 201 192 188 190 193 195 192 192 198 194
58 295 299 303 340 314 301 307 318 308 309 334 328 326 320 318 318 319 324 320 315 303 287 264 261 258 251 238 220 215 213 212 214 210 207 206 202 200 198 201 197 190 193 194 194 193 197 201 195
307 307 313 293 301 318 302 306 304 39 354 333 345 343 339 331 324 326 330 323 319 297 284 276 253 252 248 242 228 217 212 206 211 208 206 205 202 199 199 198 198 192 192 193 193 194 196 199 181
280 287 330 304 314 284 314 278 98 75 351 356 357 347 342 340 337 337 327 324 323 317 298 278 259 251 244 236 232 221 217 213 206 207 207 202 205 197 200 200 197 196 197 194 192 195 196 189 198
287 24 311 302 312 316 352 293 336 350 5 358 349 348 348 351 345 335 327 318 331 320 310 295 264 244 243 236 236 218 205 202 211 207 207 201 203 202 200 201 199 196 198 199 197 196 200 202 196
349 314 297 293 277 294 173 269 31 10 353 349 347 343 352 347 344 334 335 332 328 327 319 307 269 242 242 231 236 222 215 206 210 202 211 198 199 202 200 200 198 196 198 201 198 195 200 205 204
303 286 280 231 252 248 131 300 304 19 358 346 346 353 353 345 344 334 341 332 332 332 324 321 269 239 239 227 229 220 215 207 205 205 197 198 196 197 201 200 201 200 200 200 199 196 199 204 209
286 301 260 228 223 281 130 285 267 24 8 355 348 351 347 348 345 348 341 332 338 333 327 326 301 241 235 224 224 214 215 212 204 192 187 196 195 197 196 200 201 201 201 200 199 198 198 203 206
52 339 330 274 286 312 301 233 87 36 8 14 359 357 346 350 352 348 340 334 340 336 333 335 339 245 234 220 218 216 216 212 215 209 193 204 205 204 196 199 202 201 200 200 197 199 201 202 208
134 180 29 294 247 271 229 272 284 12 358 7 354 346 348 356 352 347 343 340 342 341 338 342 353 359 237 225 225 218 213 212 207 208 207 208 212 207 199 198 202 201 198 198 195 199 202 204 205
260 129 204 173 283 287 289 302 7 349 348 3 354 351 349 350 351 346 345 343 343 346 345 354 1 358 5 4 211 206 207 209 210 210 206 211 214 201 195 198 202 199 199 196 194 200 206 206 204
167 185 204 281 260 286 303 5 30 2 355 355 350 348 347 349 348 349 345 344 342 351 351 354 359 0 11 15 24 36 225 212 210 209 210 210 201 194 196 199 201 202 201 197 194 199 202 205 205
240 185 196 241 173 241 287 289 47 19 5 350 346 344 346 350 349 352 350 346 346 355 348 352 357 3 9 14 23 33 45 66 76 188 204 213 213 203 195 196 197 197 199 194 192 198 201 201 202